Miscellaneous Local Product
Issued by NWS Hastings, NE

Home | Current Version | Previous Version | Text Only | Print | Product List | Glossary Off
Versions: 1 2 3 4 5 6 7 8 9 10 11 12 13 14 15 16 17 18 19 20 21 22 23 24 25 26 27 28 29 30 31 32 33 34 35 36 37 38 39 40 41 42 43 44 45 46 47 48 49 50

587
AXUS43 KGID 240002
MISGRI

GID CWA HOURLY WEATHER ROUNDUP
NATIONAL WEATHER SERVICE HASTINGS NE
700 PM CDT FRI JUN 23 2017

NOTE: "FAIR" INDICATES FEW OR NO CLOUDS BELOW 12,000 FEET WITH NO
SIGNIFICANT WEATHER AND/OR OBSTRUCTIONS TO VISIBILITY.

...SOUTH CENTRAL NEBRASKA...

CITY           SKY/WX    TMP DP  RH WIND       PRES   REMARKS
GRAND ISLAND   MOSUNNY   74  46  36 NW18G26   30.07S
HASTINGS       SUNNY     75  45  34 N15G21    30.08S
KEARNEY        SUNNY     75  41  29 N13G18    30.09R
ORD            SUNNY     71  39  31 NW15      30.07S
YORK           MOSUNNY   72  46  40 N9G18     30.05S
AURORA         SUNNY     73  47  38 N9        30.06S
LEXINGTON      SUNNY     74  43  32 N10G17    30.09F
HOLDREGE       SUNNY     74  41  30 N10G18    30.08S
HEBRON         MOSUNNY   77  46  33 N12G17    30.04R

...NEBRASKA PANHANDLE...

CITY           SKY/WX    TMP DP  RH WIND       PRES   REMARKS
CHADRON        SUNNY     72  26  18 NW16G25   30.15R
ALLIANCE       SUNNY     71  31  22 NW15G23   30.16S
SCOTTSBLUFF    MOSUNNY   73  31  21 N12G22    30.17S
SIDNEY         SUNNY     72  35  25 N12G18    30.19S

...WESTERN AND NORTH CENTRAL NEBRASKA...

CITY           SKY/WX    TMP DP  RH WIND       PRES   REMARKS
VALENTINE      MOSUNNY   73  30  20 N14       30.12R
AINSWORTH      MOSUNNY   70  36  28 NW20      30.12R
ONEILL         SUNNY     71  38  30 NW14G24   30.08R
BROKEN BOW     MOSUNNY   73  41  31 NW14      30.10R
IMPERIAL       SUNNY     76  34  21 W7        30.12F
NORTH PLATTE   MOSUNNY   76  40  27 N12       30.10S
MCCOOK         MOSUNNY   79  35  20 N15       30.09F

...EASTERN NEBRASKA...

CITY           SKY/WX    TMP DP  RH WIND       PRES   REMARKS
NORFOLK        MOSUNNY   71  43  36 NW14G23   30.03R
SO SIOUX CITY  PTSUNNY   71  48  43 NW15G24   29.99R
TEKAMAH        PTSUNNY   72  47  40 NW13      30.00R
COLUMBUS       MOSUNNY   72  47  40 NW21      30.04S
ALBION         PTSUNNY   73  42  32 N14G20    30.06R
OMAHA EPPLEY   PTSUNNY   74  50  42 NW14      29.99R
OFFUTT AFB     PTSUNNY   73  49  41 NW16      30.00R
MILLARD        PTSUNNY   74  51  44 NW9G17    30.01R
LINCOLN        MOSUNNY   75  50  41 N20       30.03R
NEBRASKA CITY  SUNNY     71  54  54 N9        30.01R
BEATRICE       MOSUNNY   74  50  42 NW14G20   30.03R
FALLS CITY     SUNNY     74  53  48 N10       30.00R

...NORTHERN KANSAS...

CITY           SKY/WX    TMP DP  RH WIND       PRES   REMARKS
GOODLAND       CLOUDY    70  50  49 W9        30.15F
HILL CITY      MOSUNNY   80  45  28 N12       30.08S
NORTON         MOCLDY    79  30  17 NW8       30.07S
PHILLIPSBURG   SUNNY     81  41  24 NW10G25   30.06S
SMITH CENTER   SUNNY     79  43  27 N13       30.06S
HAYS           CLOUDY    77  48  35 W3        30.07F
RUSSELL        PTSUNNY   78  47  33 NW9       30.05S
CONCORDIA      SUNNY     79  47  32 NW15      30.03S
SALINA         SUNNY     82  46  28 N12G17    30.02S
TOPEKA         SUNNY     78  56  46 N6        29.99R



USA.gov is the U.S. government's official web portal to all federal, state and local government web resources and services.